Location: Hamburg
(53.5554°N, 9.9941°E)
Time: 00:02:25
(UTC+01:00)

ISS - Pass Details

Date: 05 January 2018
Orbit: 402 x 407 km, 51.6° (Epoch: 20 January)

Event Time Altitude Azimuth Distance (km) Brightness Sun altitude
Exits shadow 06:03:57 56° 155° (SSE) 490 -3.4 -21.1°
Drops below altitude 10° 06:07:01 10° 92° (E) 1,471 0.2 -20.7°
Sets 06:09:07 0° 89° (E) 2,333 1.5 -20.4°
